{"data":{"norad_id":51975,"epoch":"2026-05-24T23:20:04.837344Z","epoch_age_seconds":87832,"freshness":"FRESH","line1":"1 51975U 22025V   26144.97227821 -.00000422  00000+0 -18257-5 0  9990","line2":"2 51975  53.1614  29.0264 0001279  94.0629 266.0519 15.31701254232714","mean_motion":15.31701254,"eccentricity":0.0001279,"inclination_deg":53.1614,"raan_deg":29.0264,"arg_perigee_deg":94.0629,"mean_anomaly_deg":266.0519,"bstar":-1.8257e-6,"rev_number":23271,"period_min":94.013110992726,"perigee_km":469.86028622987,"apogee_km":471.61222800904,"semimajor_km":6848.8732571195,"source":"CELESTRAK","updated_at":"2026-05-25T13:38:16.994669Z"}}